sat.trackr.live / text

‹ back to catalog

STARLINK-3137

NORAD 49449 · 2021-104AT

PAYLOAD ACTIVE UNKNOWN

§ Identity

Operator
Country
US
Launch date
2021-11-13
Launch site
AFETR
Launch vehicle
Mass (kg)
RCS (m²)

Purposes: comms

External: N2YO · Heavens-Above · Gunter

§ Orbital elements

Epoch: 2026-09-19T18:41:31.953984Z

Period
92.27 min
Inclination
53.2098°
Eccentricity
0.0002788
Mean motion
15.60565808 rev/d
Perigee alt
384.1 km
Apogee alt
387.9 km
Semi-major
6,764.2 km
B*
8.1904e-4
RAAN
357.4246°
Arg perigee
1.0273°
Mean anomaly
359.0747°
Rev number
26,907

§ Raw data

STARLINK-31371 49449U 21104AT  26262.77884206  .00068967  00000+0  81904-3 0  99982 49449  53.2098 357.4246 0002788   1.0273 359.0747 15.60565808269071

JSON: /api/v1/satellites/49449 · /tle

For live sub-satellite position, see the globe view (requires WebGL).

§ Visibility from observer

Set your observer location to see the next 7 days of passes ≥ 10°. The values pass through the URL so the page stays shareable.

No JS? Fill the form by hand. The geolocation button needs JavaScript.